{"data":{"norad_id":49021,"epoch":"2026-09-20T21:54:10.724832Z","epoch_age_seconds":65383,"freshness":"FRESH","line1":"1 49021U 21064D   26263.91262413 -.00000015  00000+0  67847-4 0  9998","line2":"2 49021  45.0014 154.5283 0009092 347.3262  12.7345 14.08522155267726","mean_motion":14.08522155,"eccentricity":0.0009092,"inclination_deg":45.0014,"raan_deg":154.5283,"arg_perigee_deg":347.3262,"mean_anomaly_deg":12.7345,"bstar":6.7847e-5,"rev_number":26772,"period_min":102.23481362279,"perigee_km":857.84835973521,"apogee_km":871.0182495772,"semimajor_km":7242.5703046562,"source":"CELESTRAK","updated_at":"2026-09-21T09:00:07.941374Z"}}